Location: Arroyo Mobile Home Park
(34.3733°N, 119.3071°W)
Time: 11:08:46
(UTC+00:00)

H-2A R/B - Pass Details

Date: 03 August 2024
Orbit: 731 x 832 km, 98.2° (Epoch: 10 September)

Event Time Altitude Azimuth Distance (km) Brightness Sun altitude
Rises 12:17:16 0° 9° (N) 3,166 5.8 -10.6°
Reaches altitude 10° 12:19:32 10° 8° (N) 2,245 5.0 -10.2°
Maximum altitude 12:24:26 71° 285° (WNW) 786 1.9 -9.3°
Drops below altitude 10° 12:29:25 10° 201° (SSW) 2,277 4.0 -8.4°
Sets 12:31:44 0° 199° (SSW) 3,213 4.8 -8.0°
Enters shadow 12:31:45 - 199° (SSW) 3,223 4.8 -8.0°
